Retour au catalogue

STARLINK-35867

ActifCommunicationsVLEO
NORAD 66791·PAYLOAD·🇺🇸 United States

Lancé Dec 1, 2025 depuis Cape Canaveral Space Force Station

Loading…

Prochains Passages (prochaines 24 heures)

TLE

FraisSource: CelesTrak SupGP

Époque: Sep 14, 2026, 22:54 UTC

1 66791C 25278A   26257.95465278 -.00033428  00000+0 -12111-2 0  2577
2 66791  43.0000 125.9199 0001311 274.2563 312.2771 15.27586363    19

Suivez STARLINK-35867 en temps réel avec AllMySat

Download on the App Store